sat.trackr.live / text

‹ back to catalog

STARLINK-6298

NORAD 56391 · 2023-061T

PAYLOAD ACTIVE UNKNOWN

§ Identity

Operator
Country
US
Launch date
2023-05-04
Launch site
AFETR
Launch vehicle
Mass (kg)
RCS (m²)

Purposes: comms

External: N2YO · Heavens-Above · Gunter

§ Orbital elements

Epoch: 2026-05-25T00:01:33.749184Z

Period
94.27 min
Inclination
43.0054°
Eccentricity
0.0001609
Mean motion
15.27577559 rev/d
Perigee alt
482.0 km
Apogee alt
484.2 km
Semi-major
6,861.2 km
B*
3.2305e-5
RAAN
126.6545°
Arg perigee
282.8042°
Mean anomaly
77.2630°
Rev number
16,842

§ Raw data

STARLINK-62981 56391U 23061T   26145.00108506  .00000627  00000+0  32305-4 0  99952 56391  43.0054 126.6545 0001609 282.8042  77.2630 15.27577559168422

JSON: /api/v1/satellites/56391 · /tle

For live sub-satellite position, see the globe view (requires WebGL).

§ Visibility from observer

Set your observer location to see the next 7 days of passes ≥ 10°. The values pass through the URL so the page stays shareable.

No JS? Fill the form by hand. The geolocation button needs JavaScript.